Location: Platte
(43.3870°N, 98.8440°W)
Time: 22:34:15
(UTC-05:00)

Daily predictions for brighter satellites

Satellite Brightness Start Highest point End
(mag) Time Altitude Azimuth Time Altitude Azimuth Time Altitude Azimuth
Cosmos 2369 Rocket 2.6 21:32:49 10° NNW 21:38:22 52° ENE 21:43:50 10° SE
CZ-4 DEB 4.2 21:37:10 10° S 21:40:14 39° W 21:43:18 10° NNW
ERS-1 Rocket 3.1 21:39:55 10° SSE 21:44:56 87° WSW 21:50:00 10° NNW
USA 234 4.2 21:39:37 10° E 21:45:39 41° NNE 21:51:43 10° NW
GRACE-1 4.0 21:43:06 10° N 21:45:56 59° E 21:48:45 10° S
COSMOS 2455 2.9 21:39:56 10° SSW 21:45:57 86° ESE 21:52:00 10° NNE
GRACE-2 4.0 21:43:31 10° N 21:46:22 59° E 21:49:11 10° S
YAOGAN 6 4.3 21:44:30 10° ESE 21:47:17 20° ENE 21:50:04 10° NNE
SJ-11-01 4.5 21:49:38 10° S 21:54:18 77° WSW 21:59:01 10° NNW
Envisat 3.0 21:58:09 10° SSE 22:03:13 75° ENE 22:08:18 10° N
CZ-2C R/B 2.7 22:02:54 10° SSW 22:04:47 23° W 22:06:42 10° NW
GEOS 3 Rocket 4.0 21:59:57 10° SSE 22:05:09 62° SW 22:10:21 10° NW
Cosmos 407 Rocket 3.8 22:01:02 10° S 22:06:03 46° ESE 22:11:01 10° NNE
Cosmos 1515 3.7 22:05:37 10° S 22:09:29 87° E 22:13:21 10° N
SL-27 R/B 4.0 22:10:37 14° SE 22:11:50 17° E 22:14:03 10° ENE
Cosmos 2263 4.3 22:08:26 10° NNW 22:14:03 72° ENE 22:19:04 13° SSE
Cosmos 1825 Rocket 3.5 22:12:18 10° S 22:16:43 72° E 22:21:08 10° NNE
MetOp-A 4.2 22:12:57 11° SSE 22:18:10 70° ENE 22:23:31 10° N
UNK 4.3 22:15:47 10° NNE 22:21:16 64° ESE 22:27:01 10° S
Cosmos 1066 Rocket 4.3 22:18:48 10° S 22:24:31 80° E 22:30:23 10° NNE
Lacrosse 4 Rocket 1.3 22:21:03 10° SSW 22:25:05 90° WNW 22:29:14 10° NNE
COSMOS 2406 4.2 22:21:23 13° SSE 22:25:25 27° ESE 22:30:09 10° NE
Cosmos 1954 Rocket 4.4 22:22:35 10° S 22:27:32 42° ESE 22:32:31 10° NNE
Cosmos 1943 Rocket 2.6 22:22:17 10° NNW 22:27:43 51° ENE 22:31:53 17° SE
Cosmos 2084 3.9 22:26:35 10° NNW 22:30:37 51° NE 22:33:35 18° ESE
ISS -1.2 22:28:49 10° W 22:31:45 30° NNW 22:34:41 10° NE
H-2A R/B 3.8 22:32:26 10° SSW 22:36:11 29° W 22:40:03 10° NW
SeaSat 1 2.4 22:32:37 17° SSE 22:36:29 88° ENE 22:41:27 10° NNW
Atlas Centaur 2 3.8 22:32:30 10° WSW 22:38:28 28° S 22:42:50 18° SE
CZ-4C R/B 4.1 22:36:09 20° SE 22:38:30 38° ENE 22:42:11 10° N
Meteor 1-22 Rocket 4.3 22:33:44 10° N 22:39:24 87° W 22:44:35 14° S
Cosmos 1943 3.8 22:35:14 10° SW 22:40:50 62° WNW 22:46:31 10° NNE
Landsat 7 4.5 22:41:38 20° SE 22:44:29 42° ENE 22:48:58 10° N
Kosmos-1675 4.0 22:47:09 20° S 22:49:04 48° ESE 22:57:31 10° NE
Cosmos 1953 2.8 22:47:21 10° N 22:51:11 43° ENE 22:52:53 27° SE
Lacrosse 5 rocket 4.4 22:50:30 10° NNW 22:52:14 12° N 22:53:59 10° NNE
PSLV R/B 3.7 22:49:30 10° W 22:52:55 47° SSW 22:54:07 32° SE
CZ-4B R/B 3.6 22:47:50 10° NNE 22:52:59 83° WNW 22:58:14 10° SSW
CZ-4 R/B 3.9 22:48:10 10° NNE 22:53:12 71° ESE 22:57:25 15° S
Cosmos 1346 Rocket 3.8 22:56:10 10° SSW 22:59:55 45° WNW 23:03:45 10° N
Terra 2.5 22:57:55 24° SE 23:00:18 42° ENE 23:04:47 10° N
Nadezhda 4 Rocket 4.4 22:58:24 22° SSE 23:02:12 47° E 23:08:12 10° NNE
Cosmos-2242 3.0 22:58:16 10° N 23:02:41 75° E 23:04:55 28° SSE
USA 245 4.3 22:58:46 17° S 23:03:09 65° WSW 23:07:51 10° NNW
Cosmos 1842 3.1 23:00:59 24° S 23:03:16 81° E 23:07:12 10° N
ARGOS 3.2 22:59:31 21° S 23:03:17 83° WSW 23:08:45 10° NNW
SPOT 5 4.2 23:00:32 10° SSW 23:04:20 29° W 23:08:07 10° NW
Cosmos 1850 Rocket 4.3 23:04:58 25° SSE 23:07:45 48° ESE 23:12:45 10° NNE
Cosmos 1140 Rocket 3.5 23:06:28 18° S 23:10:17 66° ESE 23:15:29 10° NNE
ATLAS 3B R/B 3.5 23:03:57 10° SW 23:11:32 60° NW 23:18:56 10° NNE
Cosmos 1570 Rocket 4.1 23:06:38 10° NNW 23:12:01 73° ENE 23:14:45 30° SSE
SL-8 R/B 3.7 23:11:40 10° WNW 23:16:33 88° NNE 23:19:03 29° ESE
SL-23 DEB 4.2 23:10:41 10° WSW 23:16:44 82° NNW 23:20:25 10° ENE
H-2A R/B 2.0 23:14:20 30° SE 23:16:45 66° ENE 23:21:51 10° N
Lacrosse 5 4.1 23:13:19 10° NNW 23:17:09 21° NNE 23:20:58 10° ENE
YAOGAN 6 4.3 23:18:23 16° SSW 23:20:41 29° W 23:24:00 10° NW
Cosmos 2369 Rocket 4.0 23:17:36 10° NW 23:22:00 24° WSW 23:26:20 10° SSW
Cosmos 1607 3.9 23:17:18 10° SSW 23:23:31 67° ESE 23:29:42 10° NE
NOSS 3-2 (A) 4.0 23:22:46 29° SSE 23:24:41 36° ESE 23:30:34 10° NE
USA 234 3.2 23:24:29 27° SE 23:28:20 80° SW 23:34:57 10° NW
Cosmos 614 Rocket 4.0 23:27:50 31° S 23:30:10 62° ESE 23:35:21 10° NNE
SL-08 RB Rocket 4.4 23:29:35 25° SSW 23:31:56 47° W 23:36:18 10° NNW
SAR-Lupe-2 3.5 23:32:34 53° S 23:33:19 78° WSW 23:36:56 10° NNW
Cosmos 1340 3.1 23:35:42 42° E 23:35:47 42° E 23:39:24 10° NNE
Cosmos 1544 3.2 23:32:11 10° N 23:35:56 63° E 23:36:27 55° SE
Spot 2 4.4 23:31:47 10° NNE 23:36:42 74° ESE 23:38:52 35° S
Cosmos 1758 4.0 23:35:56 10° NNW 23:39:56 51° W 23:41:25 33° SSW
CARTOSAT-1 3.6 23:39:08 41° S 23:40:33 72° WSW 23:44:53 10° NNW
Meteor 2-5 Rocket 4.0 23:42:55 36° SSE 23:45:01 56° E 23:50:38 10° NNE
Okean 3 Rocket 3.7 23:45:27 48° SE 23:46:10 54° E 23:50:29 10° NNE
SL-27 R/B 4.4 23:44:17 11° WSW 23:46:55 26° WNW 23:49:48 10° N
CZ-4C R/B 2.4 23:48:42 41° SSE 23:49:53 47° ESE 23:55:32 10° NE
BREEZE-M DEB (TANK) 4.1 23:50:18 10° WNW 23:52:06 22° N 23:54:00 10° NE
Cosmos 1470 2.5 23:50:28 10° N 23:54:23 81° E 23:54:45 70° SE
Cosmos 1805 4.3 23:51:04 10° NNW 23:54:45 38° W 23:55:51 31° SW
